Location: ???????
(55.3754°N, 39.3545°E)
Time: 21:05:58
(UTC+00:00)

SPOT 3 Rocket - Pass Details

Date: 14 April 2026
Orbit: 774 x 791 km, 98.5° (Epoch: 16 May)

Event Time Altitude Azimuth Distance (km) Brightness Sun altitude
Exits shadow 17:44:41 14° 132° (SE) 2,072 5.1 -10.8°
Maximum altitude 17:48:52 46° 64° (ENE) 1,059 4.0 -11.3°
Drops below altitude 10° 17:53:48 10° 353° (N) 2,357 6.7 -11.9°
Sets 17:56:12 0° 347° (NNW) 3,287 7.6 -12.1°
